Погода в Жезказгане

Хотите узнать прогноз погоды в Жезказгане? Тогда Вам сюда: Погода в Жезказгане

Поиск расширенной информации на нашем сайте:

Полезная информация:

Новости сайта



02.01.2020
Опубликован Долгосрочный прогноз погоды по городам России и ближнего зарубежья на январь 2020 года.
Карты: Прогноз на январь и февраль 2020 года, Сравнение прогнозируемой аномалии приземной температуры воздуха на январь 2020 года по разным моделям.




Погода в Жезказгане - сегодня

Время (UTC), дата Ветер
(°,м/с) 
Видим.   Явления Облачность Т
(°С)
Тd
(°С)
f(%) Тe
(°С)
Pmin
(гПа)
dP
(гПа)
Po
(мм)
O2
(г/м3)
Тmin Tmax R s Состояние
почвы
18 24.01.20 250 (З) 4000 м  дымка{снег}  10/10 600 м 
[Sc]
-3 -4.3 91 -3  1010.4  2.5  726  296    -3  0.6     
21 24.01.20 270 (З) 4000 м  дымка{снег}  10/10 600 м 
[Sc]
-2.2 -3.7 89 -4  1012.7  2.3  727  296           
00 25.01.20 230 (ЮЗ) 4000 м  дымка{снег}  10/10 600 м 
[Sc]
-6.4 -7.9 89 -8  1015.5  729  301           
03 25.01.20 210 (ЮЗ) 4000 м  дымка  10/10 600 м 
[Sc]
-6.2 -7.7 89 -9  1016.6  1.1  730  302        равномерный
сухой снег
100% 
06 25.01.20 240 (ЮЗ) 20000 м  {снег}  8/8 600 м 
[Sc]
-5.1 -7.5 83 -8  1018.7  2.2  731  301  -0.6    0.8     
09 25.01.20 250 (З) 20000 м    8/3 600 м верхняя 
[Sc|Ci fib]
-7.5 -10.9 77 -12  1021.2  1.9  733  305           
12 25.01.20 230 (ЮЗ) 20000 м    3/3 600 м 
[Sc]
-9.4 -12.4 79 -12  1022.7  1.2  734  307           
15 25.01.20 210 (ЮЗ) 20000 м    8/8 600 м 
[Sc]
-9.3 -11.8 82 -12  1024.1  1.3  735  308    -4.5       
18 25.01.20 200 (Ю) 20000 м    10/10 600 м 
[Sc]
-7.7 -10.3 82 -11  1023.7  -0.1  735  306    -4.5  0.0     
21 25.01.20 200 (Ю) 4000 м  дымка  8/8 600 м 
[Sc]
-9.6 -11.2 88 -14  1023.1  -0.9  734  308           
00 26.01.20 200 (Ю) 20000 м    10/10 600 м 
[Sc]
-8.1 -10.8 81 -12  1022.2  -0.5  734  306           
03 26.01.20 190 (Ю) 20000 м    10/10 600 м 
[Sc]
-7.5 -10.1 82 -12  1021.5  -0.7  733  305        равномерный
сухой снег
100% 
06 26.01.20 180 (Ю) 10-15  4000 м  позёмок  10/10 600 м 
[Sc]
-6.8 -8.8 86 -13  1019.7  -1.6  732  303  -9.7         
09 26.01.20 180 (Ю) 15-18{20}  2000 м  метель  9/9 600 м 
[Sc]
-5.6 -7.4 87 -13  1017.1  -2.2  730  301           
12 26.01.20 200 (Ю) 15-18{20}  0500 м  сильная метель  10/10 600 м 
[Sc]
-5.4 -7.2 87 -13  1014.5  -2.5  728  300           
15 26.01.20 190 (Ю) 15-18  0500 м  сильная метель  10/10 600 м 
[Sc]
-4.7 -6.3 89 -12  1012.6  -1.7  727  299    -4.6       
18 26.01.20 190 (Ю) 16-19  0500 м  сильная метель  10/10 600 м 
[Sc]
-4.2 -5.7 89 -12  1009.8  -2.6  725  297    -4.6       
21 26.01.20 200 (Ю) 11-17{18}  1000 м  метель  10/10 600 м 
[Sc]
-3.9 -5.4 89 -10  1008.4  -1.3  724  297           
00 27.01.20 210 (ЮЗ) 11-17{18}  1000 м  метель  10/10 600 м 
[Sc]
-2.9 -4.5 89 -9  1006.4  -1.8  723  295           
03 27.01.20 210 (ЮЗ) 8{15}  4000 м  позёмок  9/9 600 м 
[Sc]
-3.5 -4.9 90 -8  1008.5  724  296        равномерный
сухой снег
100% 
06 27.01.20 220 (ЮЗ) 4000 м  позёмок  10/10 600 м 
[Sc]
-4.5 -6.1 89 -9  1009.9  1.1  725  298  -4.7         
09 27.01.20 240 (ЮЗ) 20000 м  позёмок  10/10 600 м 
[Sc]
-3.5 -5.9 83 -8  1010.8  1.1  726  297           
12 27.01.20 260 (З) 20000 м  позёмок  6/4 600 м средняя 
[Sc|Ac lent]
-6.4 -9.1 81 -11  1015.6  4.1  729  302           
15 27.01.20 230 (ЮЗ) 20000 м    8/6 600 м средняя 
[Sc|Ac lent]
-7.3 -9.4 85 -12  1018.7  2.8  731  304    -3.4       
18 27.01.20 210 (ЮЗ) 4000 м  позёмок  10/10 600 м 
[Sc]
-6.1 -8 86 -11  1018.4  -0.1  731  302    -3.4       
Время (UTC), дата Ветер
(°,м/с) 
Видим.   Явления Облачность Т
(°С)
Тd
(°С)
f(%) Тe
(°С)
Pmin
(гПа)
dP
(гПа)
Po
(мм)
O2
(г/м3)
Тmin Tmax R s Состояние
почвы

Для получения пояснительной информации подведите курсор к названию столбца.

ПОГОДА в Жезказгане - архив

Всё, что Вы хотите узнать о погоде в Жезказгане - удобно и подробно!

Выберите нужную дату (начиная с 1 января 2019* года) и нажмите кнопку "Найти".
Будут отображены архивные сводки погоды по пункту Жезказган, начиная с указанной даты.


Отображать данные в формате CSV (для использования в таблицах Excel)


Внимание! Наш архив погоды предназначен исключительно для личного некоммерческого использования в познавательных целях. Если Вам необходимы официальные справки о состоянии погоды (для производственных, юридических, коммерческих и т.п. целей), обращайтесь в органы Росгидромета.

*Примечание: данная дата относится к архиву по метеостанциям СССР (Россия, СНГ, Балтия).
Архив по метеостанциям Зарубежной Европы и Азии (кроме Китая) хранится 10 дней, по другим регионам земного шара (Китай, Африка, Америка, Австралия, Океания) - 1 день.

Жезказган - район местоположения метеостанции


Название, широта, долгота, высота метеостанции:
Жезказган 47.8°ш. 67.7°д. 346 м над ур. моря [Казахстан]

Дополнительная информация

В oтличие oт бoльшинства пoгoдных сайтoв мы публикуем пoдрoбную метеoинфoрмацию в детальнoм прoфессиoнальнoм фoрмате.

Характеристики температуры и влажнoсти вoздуха измеряются на высoте 2 м в тени вдали oт зданий и деревьев.
Скoрoсть ветра измеряется на высoте 10 м (на урoвне рoста челoвека скoрoсть ветра ниже в 1.5-2 раза). Если метеoстанция нахoдится в гoрoде или в лесу, тo скoрoсть ветра занижена на 2-4 м/с пo сравнению с oткрытым местoм. Скoрoсть ветра над акватoриями крупных рек и oзёр, а также на вершинах хoлмoв на 2-5 м/с выше, чем в oбычных услoвиях.
Атмoсфернoе давление в разных тoчках местнoсти мoжет значительнo oтличаться oт давления на метеoстанции, в зависимoсти oт услoвий рельефа (при пoдъёме на 10 м давление пoнижается примернo на 1 мм рт.ст.).